Time,TemperatureF,DewpointF,PressureIn,WindDirection,WindDirectionDegrees,WindSpeedMPH,WindSpeedGustMPH,Humidity,HourlyPrecipIn,Conditions,Clouds,dailyrainin,SoftwareType,DateUTC
2013-02-18 07:01:00,60.1,51.8,29.23,SSE,165,13.2,13.2,74,0.00,,---,0.00,VWS V13.01,2013-02-18 13:01:00,
2013-02-18 07:06:00,60.1,51.8,29.23,SE,138,8.3,8.3,74,0.00,,---,0.00,VWS V13.01,2013-02-18 13:06:00,
2013-02-18 07:11:00,60.1,51.8,29.21,South,169,7.6,17.4,74,0.00,,---,0.00,VWS V13.01,2013-02-18 13:11:00,
2013-02-18 07:16:00,60.1,51.8,29.21,South,189,4.9,5.8,74,0.00,,---,0.00,VWS V13.01,2013-02-18 13:16:00,
2013-02-18 07:21:00,60.1,51.8,29.21,SSE,157,12.8,16.3,74,0.00,,---,0.00,VWS V13.01,2013-02-18 13:21:00,
2013-02-18 07:26:00,60.3,52.3,29.23,South,182,14.5,14.5,75,0.00,,---,0.00,VWS V13.01,2013-02-18 13:26:00,
2013-02-18 07:31:00,60.3,52.3,29.23,SSE,156,12.3,12.3,75,0.00,,---,0.00,VWS V13.01,2013-02-18 13:31:00,
2013-02-18 07:36:00,60.4,52.5,29.23,South,173,15.4,15.4,75,0.00,,---,0.00,VWS V13.01,2013-02-18 13:36:00,
2013-02-18 07:41:00,60.4,52.5,29.23,SSE,165,8.3,15.0,75,0.00,,---,0.00,VWS V13.01,2013-02-18 13:41:00,
2013-02-18 07:46:00,60.6,52.7,29.23,SW,214,13.2,14.1,75,0.00,,---,0.00,VWS V13.01,2013-02-18 13:46:00,
2013-02-18 07:51:00,60.6,52.7,29.23,WSW,238,11.9,11.9,75,0.00,,---,0.00,VWS V13.01,2013-02-18 13:51:00,
2013-02-18 07:56:00,60.6,52.7,29.21,SE,141,15.0,15.0,75,0.00,,---,0.00,VWS V13.01,2013-02-18 13:56:00,
2013-02-18 08:01:00,60.8,52.8,29.21,SE,140,10.1,10.1,75,0.00,,---,0.00,VWS V13.01,2013-02-18 14:01:00,
2013-02-18 08:06:00,61.0,53.0,29.21,SSE,167,12.8,15.4,75,0.00,,---,0.00,VWS V13.01,2013-02-18 14:06:00,
2013-02-18 08:11:00,61.0,52.7,29.23,SE,129,11.9,11.9,74,0.00,,---,0.00,VWS V13.01,2013-02-18 14:11:00,
2013-02-18 08:16:00,61.2,52.8,29.23,SSE,166,8.7,9.6,74,0.00,,---,0.00,VWS V13.01,2013-02-18 14:16:00,
2013-02-18 08:21:00,61.3,53.0,29.23,South,183,15.0,15.4,74,0.00,,---,0.00,VWS V13.01,2013-02-18 14:21:00,
2013-02-18 08:26:00,61.5,53.2,29.23,South,186,8.3,13.2,74,0.00,,---,0.00,VWS V13.01,2013-02-18 14:26:00,
2013-02-18 08:31:00,61.7,53.3,29.23,SSE,162,6.3,6.3,74,0.00,,---,0.00,VWS V13.01,2013-02-18 14:31:00,
2013-02-18 08:36:00,61.7,53.3,29.23,SSE,160,13.2,17.4,74,0.00,,---,0.00,VWS V13.01,2013-02-18 14:36:00,
2013-02-18 08:41:00,61.9,53.5,29.23,SW,219,7.6,8.1,74,0.00,,---,0.00,VWS V13.01,2013-02-18 14:41:00,
2013-02-18 08:46:00,62.2,53.5,29.23,South,184,7.6,7.6,73,0.00,,---,0.00,VWS V13.01,2013-02-18 14:46:00,
2013-02-18 08:51:00,62.4,53.7,29.23,South,173,8.7,10.1,73,0.00,,---,0.00,VWS V13.01,2013-02-18 14:51:00,
2013-02-18 08:56:00,62.6,53.5,29.23,SSE,147,9.2,15.0,72,0.00,,---,0.00,VWS V13.01,2013-02-18 14:56:00,
2013-02-18 09:01:00,63.0,53.8,29.23,SSE,166,8.1,11.0,72,0.00,,---,0.00,VWS V13.01,2013-02-18 15:01:00,
2013-02-18 09:06:00,63.1,54.0,29.23,SSE,153,8.7,8.7,72,0.00,,---,0.00,VWS V13.01,2013-02-18 15:06:00,
2013-02-18 09:11:00,63.1,54.0,29.23,SSE,159,14.5,14.5,72,0.00,,---,0.00,VWS V13.01,2013-02-18 15:11:00,
2013-02-18 09:16:00,63.1,54.0,29.23,SSE,166,21.5,24.2,72,0.00,,---,0.00,VWS V13.01,2013-02-18 15:16:00,
2013-02-18 09:21:00,63.3,54.2,29.23,SSE,166,8.3,8.3,72,0.00,,---,0.00,VWS V13.01,2013-02-18 15:21:00,
2013-02-18 09:26:00,63.3,54.2,29.23,South,182,13.2,13.6,72,0.00,,---,0.00,VWS V13.01,2013-02-18 15:26:00,
2013-02-18 09:31:00,63.5,54.3,29.23,SSE,158,8.7,10.1,72,0.00,,---,0.00,VWS V13.01,2013-02-18 15:31:00,
2013-02-18 09:36:00,63.9,54.3,29.23,SSE,153,13.6,13.6,71,0.00,,---,0.00,VWS V13.01,2013-02-18 15:36:00,
2013-02-18 09:41:00,64.0,54.5,29.23,SSE,151,10.1,11.9,71,0.00,,---,0.00,VWS V13.01,2013-02-18 15:41:00,
2013-02-18 09:46:00,64.4,54.4,29.23,SSW,213,13.2,13.2,70,0.00,,---,0.00,VWS V13.01,2013-02-18 15:46:00,
2013-02-18 09:51:00,64.8,54.8,29.23,South,172,15.0,15.0,70,0.00,,---,0.00,VWS V13.01,2013-02-18 15:51:00,
2013-02-18 09:56:00,65.1,54.3,29.21,SE,145,15.4,15.4,68,0.00,,---,0.00,VWS V13.01,2013-02-18 15:56:00,
2013-02-18 10:01:00,65.7,54.8,29.21,South,183,11.0,11.0,68,0.00,,---,0.00,VWS V13.01,2013-02-18 16:01:00,
2013-02-18 10:06:00,66.0,54.3,29.21,South,169,4.9,10.5,66,0.00,,---,0.00,VWS V13.01,2013-02-18 16:06:00,
2013-02-18 10:11:00,66.6,54.9,29.21,South,178,5.8,8.7,66,0.00,,---,0.00,VWS V13.01,2013-02-18 16:11:00,
2013-02-18 10:16:00,66.9,54.4,29.21,SW,236,19.2,19.2,64,0.00,,---,0.00,VWS V13.01,2013-02-18 16:16:00,
2013-02-18 10:21:00,67.5,54.4,29.21,SSE,163,19.7,19.7,63,0.00,,---,0.00,VWS V13.01,2013-02-18 16:21:00,
2013-02-18 10:26:00,67.5,54.0,29.21,SSE,153,11.4,11.4,62,0.00,,---,0.00,VWS V13.01,2013-02-18 16:26:00,
2013-02-18 10:31:00,67.6,54.2,29.21,SSW,204,8.7,10.5,62,0.00,,---,0.00,VWS V13.01,2013-02-18 16:31:00,
2013-02-18 10:36:00,67.6,54.2,29.21,SSE,164,11.4,11.4,62,0.00,,---,0.00,VWS V13.01,2013-02-18 16:36:00,
2013-02-18 10:41:00,67.8,53.9,29.21,SSE,166,12.8,17.0,61,0.00,,---,0.00,VWS V13.01,2013-02-18 16:41:00,
2013-02-18 10:46:00,68.4,54.4,29.21,SSW,209,17.4,17.4,61,0.00,,---,0.00,VWS V13.01,2013-02-18 16:46:00,
2013-02-18 10:51:00,69.3,53.4,29.21,SSW,195,15.4,15.4,57,0.00,,---,0.00,VWS V13.01,2013-02-18 16:51:00,
2013-02-18 10:56:00,69.8,52.4,29.21,SSE,147,7.2,10.5,54,0.00,,---,0.00,VWS V13.01,2013-02-18 16:56:00,
2013-02-18 11:01:00,70.3,52.4,29.21,SSE,166,6.3,10.5,53,0.00,,---,0.00,VWS V13.01,2013-02-18 17:01:00,
2013-02-18 11:06:00,71.1,52.0,29.21,SSW,210,11.0,11.0,51,0.00,,---,0.00,VWS V13.01,2013-02-18 17:06:00,
2013-02-18 11:11:00,71.4,51.3,29.21,SSW,193,9.2,13.2,49,0.00,,---,0.00,VWS V13.01,2013-02-18 17:11:00,
2013-02-18 11:16:00,71.2,51.7,29.21,WSW,241,13.6,13.6,50,0.00,,---,0.00,VWS V13.01,2013-02-18 17:16:00,
2013-02-18 11:21:00,71.8,52.2,29.21,WSW,257,14.5,14.5,50,0.00,,---,0.00,VWS V13.01,2013-02-18 17:21:00,
2013-02-18 11:26:00,72.5,51.7,29.21,South,173,8.7,13.2,48,0.00,,---,0.00,VWS V13.01,2013-02-18 17:26:00,
2013-02-18 11:31:00,72.9,51.5,29.21,SE,139,14.1,14.1,47,0.00,,---,0.00,VWS V13.01,2013-02-18 17:31:00,
2013-02-18 11:37:00,73.4,52.0,29.21,SSW,199,10.5,19.2,47,0.00,,---,0.00,VWS V13.01,2013-02-18 17:37:00,
2013-02-18 11:42:00,73.9,51.3,29.21,SW,218,15.4,15.4,45,0.00,,---,0.00,VWS V13.01,2013-02-18 17:42:00,
2013-02-18 11:47:00,73.8,51.1,29.21,SSW,197,12.8,12.8,45,0.00,,---,0.00,VWS V13.01,2013-02-18 17:47:00,
2013-02-18 11:52:00,73.4,50.8,29.21,SSW,197,12.8,12.8,45,0.00,,---,0.00,VWS V13.01,2013-02-18 17:52:00,
2013-02-18 11:57:00,73.4,50.8,29.21,SSW,197,12.8,12.8,45,0.00,,---,0.00,VWS V13.01,2013-02-18 17:57:00,
2013-02-18 12:02:00,73.4,50.8,29.21,SSW,197,12.8,12.8,45,0.00,,---,0.00,VWS V13.01,2013-02-18 18:02:00,
2013-02-18 12:07:00,73.4,50.8,29.21,SSW,197,12.8,12.8,45,0.00,,---,0.00,VWS V13.01,2013-02-18 18:07:00,
2013-02-18 12:12:00,73.4,50.8,29.21,SSW,197,12.8,12.8,45,0.00,,---,0.00,VWS V13.01,2013-02-18 18:12:00,
2013-02-18 12:17:00,74.3,48.4,29.21,SSW,197,12.8,12.8,40,0.00,,---,0.00,VWS V13.01,2013-02-18 18:17:00,
2013-02-18 12:22:00,74.3,48.4,29.21,SSW,197,12.8,12.8,40,0.00,,---,0.00,VWS V13.01,2013-02-18 18:22:00,
2013-02-18 12:27:00,74.3,48.4,29.21,SSW,197,12.8,12.8,40,0.00,,---,0.00,VWS V13.01,2013-02-18 18:27:00,
2013-02-18 12:32:00,74.3,48.4,29.18,SSW,197,12.8,12.8,40,0.00,,---,0.00,VWS V13.01,2013-02-18 18:32:00,
2013-02-18 12:37:00,74.3,48.4,29.18,SSW,197,12.8,12.8,40,0.00,,---,0.00,VWS V13.01,2013-02-18 18:37:00,
2013-02-18 12:42:00,75.6,45.2,29.18,SSW,197,12.8,12.8,34,0.00,,---,0.00,VWS V13.01,2013-02-18 18:42:00,
2013-02-18 12:47:00,75.6,45.2,29.18,SSW,197,12.8,12.8,34,0.00,,---,0.00,VWS V13.01,2013-02-18 18:47:00,
2013-02-18 12:52:00,76.8,44.8,29.18,SSW,197,12.8,12.8,32,0.00,,---,0.00,VWS V13.01,2013-02-18 18:52:00,
2013-02-18 12:57:00,76.8,43.9,29.18,SSW,197,12.8,12.8,31,0.00,,---,0.00,VWS V13.01,2013-02-18 18:57:00,
2013-02-18 13:02:00,76.6,43.8,29.18,SSW,192,12.8,12.8,31,0.00,,---,0.00,VWS V13.01,2013-02-18 19:02:00,
2013-02-18 13:07:00,76.5,43.6,29.18,SSW,192,12.8,12.8,31,0.00,,---,0.00,VWS V13.01,2013-02-18 19:07:00,
2013-02-18 13:12:00,76.5,43.6,29.18,SSW,192,12.8,12.8,31,0.00,,---,0.00,VWS V13.01,2013-02-18 19:12:00,
2013-02-18 13:17:00,76.5,43.6,29.18,SSW,192,12.8,12.8,31,0.00,,---,0.00,VWS V13.01,2013-02-18 19:17:00,
2013-02-18 13:22:00,76.3,42.6,29.18,SW,217,13.6,13.6,30,0.00,,---,0.00,VWS V13.01,2013-02-18 19:22:00,
2013-02-18 13:27:00,76.3,42.6,29.18,SW,217,13.6,13.6,30,0.00,,---,0.00,VWS V13.01,2013-02-18 19:27:00,
2013-02-18 13:32:00,76.3,43.5,29.18,SW,217,13.6,13.6,31,0.00,,---,0.00,VWS V13.01,2013-02-18 19:32:00,
2013-02-18 13:37:00,76.8,43.1,29.18,SW,217,13.6,13.6,30,0.00,,---,0.00,VWS V13.01,2013-02-18 19:37:00,
2013-02-18 13:42:00,76.8,43.1,29.18,SW,217,13.6,13.6,30,0.00,,---,0.00,VWS V13.01,2013-02-18 19:42:00,
2013-02-18 13:47:00,77.4,41.7,29.18,SW,217,13.6,13.6,28,0.00,,---,0.00,VWS V13.01,2013-02-18 19:47:00,
2013-02-18 13:53:00,77.5,41.0,29.18,SW,217,13.6,13.6,27,0.00,,---,0.00,VWS V13.01,2013-02-18 19:53:00,
2013-02-18 13:58:00,77.2,39.7,29.18,SW,217,13.6,13.6,26,0.00,,---,0.00,VWS V13.01,2013-02-18 19:58:00,
2013-02-18 14:03:00,77.2,39.7,29.18,SW,217,13.6,13.6,26,0.00,,---,0.00,VWS V13.01,2013-02-18 20:03:00,
2013-02-18 14:08:00,77.5,40.0,29.18,SW,217,13.6,13.6,26,0.00,,---,0.00,VWS V13.01,2013-02-18 20:08:00,
2013-02-18 14:13:00,77.5,40.0,29.18,SW,217,13.6,13.6,26,0.00,,---,0.00,VWS V13.01,2013-02-18 20:13:00,
2013-02-18 14:18:00,77.5,40.0,29.18,SW,217,13.6,13.6,26,0.00,,---,0.00,VWS V13.01,2013-02-18 20:18:00,
2013-02-18 14:23:00,78.1,38.4,29.18,SW,217,13.6,13.6,24,0.00,,---,0.00,VWS V13.01,2013-02-18 20:23:00,
2013-02-18 14:28:00,78.1,38.4,29.18,South,191,6.7,6.7,24,0.00,,---,0.00,VWS V13.01,2013-02-18 20:28:00,
2013-02-18 14:33:00,76.6,37.2,29.18,South,191,6.7,6.7,24,0.00,,---,0.00,VWS V13.01,2013-02-18 20:33:00,
2013-02-18 14:38:00,73.6,35.6,29.18,South,191,6.7,6.7,25,0.00,,---,0.00,VWS V13.01,2013-02-18 20:38:00,
2013-02-18 14:43:00,72.9,35.0,29.18,South,191,6.7,6.7,25,0.00,,---,0.00,VWS V13.01,2013-02-18 20:43:00,
2013-02-18 14:48:00,72.3,33.5,29.18,South,191,6.7,6.7,24,0.00,,---,0.00,VWS V13.01,2013-02-18 20:48:00,
2013-02-18 14:53:00,72.3,33.5,29.18,South,191,6.7,6.7,24,0.00,,---,0.00,VWS V13.01,2013-02-18 20:53:00,
2013-02-18 14:58:00,71.4,33.8,29.18,WNW,297,12.3,12.3,25,0.00,,---,0.00,VWS V13.01,2013-02-18 20:58:00,
2013-02-18 15:03:00,71.2,33.6,29.18,WNW,297,12.3,12.3,25,0.00,,---,0.00,VWS V13.01,2013-02-18 21:03:00,
2013-02-18 15:08:00,71.4,33.8,29.18,WNW,297,12.3,12.3,25,0.00,,---,0.00,VWS V13.01,2013-02-18 21:08:00,
2013-02-18 15:13:00,70.5,33.0,29.18,WNW,297,12.3,12.3,25,0.00,,---,0.00,VWS V13.01,2013-02-18 21:13:00,
2013-02-18 15:18:00,70.5,33.0,29.18,WNW,297,12.3,12.3,25,0.00,,---,0.00,VWS V13.01,2013-02-18 21:18:00,
2013-02-18 15:23:00,70.2,31.7,29.18,WNW,297,12.3,12.3,24,0.00,,---,0.00,VWS V13.01,2013-02-18 21:23:00,
2013-02-18 15:28:00,70.2,31.7,29.18,WNW,297,12.3,12.3,24,0.00,,---,0.00,VWS V13.01,2013-02-18 21:28:00,
2013-02-18 15:33:00,69.8,32.4,29.18,WNW,297,12.3,12.3,25,0.00,,---,0.00,VWS V13.01,2013-02-18 21:33:00,
2013-02-18 15:38:00,68.9,31.7,29.18,WNW,297,12.3,12.3,25,0.00,,---,0.00,VWS V13.01,2013-02-18 21:38:00,
2013-02-18 15:43:00,68.7,31.5,29.18,WNW,297,12.3,12.3,25,0.00,,---,0.00,VWS V13.01,2013-02-18 21:43:00,
2013-02-18 15:48:00,68.2,31.0,29.18,WNW,297,12.3,12.3,25,0.00,,---,0.00,VWS V13.01,2013-02-18 21:48:00,
2013-02-18 15:53:00,68.2,31.0,29.18,WNW,297,12.3,12.3,25,0.00,,---,0.00,VWS V13.01,2013-02-18 21:53:00,
2013-02-18 15:58:00,68.2,31.0,29.18,WNW,297,12.3,12.3,25,0.00,,---,0.00,VWS V13.01,2013-02-18 21:58:00,
2013-02-18 16:03:00,67.6,30.6,29.23,WNW,297,12.3,12.3,25,0.00,,---,0.00,VWS V13.01,2013-02-18 22:03:00,
2013-02-18 16:08:00,67.6,30.6,29.23,West,281,14.5,14.5,25,0.00,,---,0.00,VWS V13.01,2013-02-18 22:08:00,
2013-02-18 16:13:00,67.3,30.3,29.23,West,281,14.5,14.5,25,0.00,,---,0.00,VWS V13.01,2013-02-18 22:13:00,
2013-02-18 16:18:00,67.3,30.3,29.23,West,281,14.5,14.5,25,0.00,,---,0.00,VWS V13.01,2013-02-18 22:18:00,
2013-02-18 16:23:00,67.3,30.3,29.23,West,281,14.5,14.5,25,0.00,,---,0.00,VWS V13.01,2013-02-18 22:23:00,
2013-02-18 16:28:00,66.6,30.6,29.23,WNW,291,17.4,17.4,26,0.00,,---,0.00,VWS V13.01,2013-02-18 22:28:00,
2013-02-18 16:33:00,66.6,30.6,29.23,WNW,298,11.0,11.0,26,0.00,,---,0.00,VWS V13.01,2013-02-18 22:33:00,
2013-02-18 16:38:00,66.2,30.3,29.23,WNW,298,6.3,7.6,26,0.00,,---,0.00,VWS V13.01,2013-02-18 22:38:00,
2013-02-18 16:43:00,66.2,30.3,29.23,WNW,298,6.3,6.3,26,0.00,,---,0.00,VWS V13.01,2013-02-18 22:43:00,
2013-02-18 16:48:00,66.2,30.3,29.23,WNW,298,6.3,6.3,26,0.00,,---,0.00,VWS V13.01,2013-02-18 22:48:00,
2013-02-18 16:53:00,66.2,30.3,29.23,WNW,298,6.3,6.3,26,0.00,,---,0.00,VWS V13.01,2013-02-18 22:53:00,
2013-02-18 16:59:00,66.2,30.3,29.23,WNW,301,8.7,8.7,26,0.00,,---,0.00,VWS V13.01,2013-02-18 22:59:00,
2013-02-18 17:04:00,66.2,30.3,29.23,West,281,13.6,13.6,26,0.00,,---,0.00,VWS V13.01,2013-02-18 23:04:00,
2013-02-18 17:09:00,66.2,30.3,29.23,West,281,13.6,13.6,26,0.00,,---,0.00,VWS V13.01,2013-02-18 23:09:00,
2013-02-18 17:14:00,66.2,30.3,29.23,West,266,10.1,10.5,26,0.00,,---,0.00,VWS V13.01,2013-02-18 23:14:00,
2013-02-18 17:19:00,66.2,30.3,29.23,WNW,286,11.0,11.0,26,0.00,,---,0.00,VWS V13.01,2013-02-18 23:19:00,
2013-02-18 17:24:00,66.2,30.3,29.23,WNW,297,6.3,6.3,26,0.00,,---,0.00,VWS V13.01,2013-02-18 23:24:00,
2013-02-18 17:29:00,66.2,30.3,29.23,WNW,297,6.3,6.3,26,0.00,,---,0.00,VWS V13.01,2013-02-18 23:29:00,
2013-02-18 17:34:00,66.2,30.3,29.23,West,277,8.1,8.1,26,0.00,,---,0.00,VWS V13.01,2013-02-18 23:34:00,
2013-02-18 17:39:00,66.2,30.3,29.23,West,277,8.1,8.1,26,0.00,,---,0.00,VWS V13.01,2013-02-18 23:39:00,
2013-02-18 17:44:00,66.2,30.3,29.23,West,273,14.1,14.1,26,0.00,,---,0.00,VWS V13.01,2013-02-18 23:44:00,
2013-02-18 17:49:00,66.2,30.3,29.23,WNW,303,11.0,11.0,26,0.00,,---,0.00,VWS V13.01,2013-02-18 23:49:00,
2013-02-18 17:54:00,66.2,30.3,29.23,WNW,285,5.4,11.0,26,0.00,,---,0.00,VWS V13.01,2013-02-18 23:54:00,
2013-02-18 17:59:00,66.2,30.3,29.23,WNW,300,12.8,12.8,26,0.00,,---,0.00,VWS V13.01,2013-02-18 23:59:00,
2013-02-18 18:04:00,66.2,30.3,29.23,NNW,334,13.2,13.2,26,0.00,,---,0.00,VWS V13.01,2013-02-19 00:04:00,
2013-02-18 18:09:00,66.2,30.3,29.23,NW,309,12.8,12.8,26,0.00,,---,0.00,VWS V13.01,2013-02-19 00:09:00,
2013-02-18 18:14:00,66.2,30.3,29.23,West,273,10.1,10.1,26,0.00,,---,0.00,VWS V13.01,2013-02-19 00:14:00,
2013-02-18 18:19:00,66.2,30.3,29.23,WNW,284,13.2,13.2,26,0.00,,---,0.00,VWS V13.01,2013-02-19 00:19:00,
2013-02-18 18:24:00,66.2,30.3,29.23,WNW,284,13.2,13.2,26,0.00,,---,0.00,VWS V13.01,2013-02-19 00:24:00,
2013-02-18 18:29:00,66.2,30.3,29.23,WNW,290,7.6,7.6,26,0.00,,---,0.00,VWS V13.01,2013-02-19 00:29:00,
2013-02-18 18:34:00,61.7,30.8,29.23,WNW,290,7.6,7.6,31,0.00,,---,0.00,VWS V13.01,2013-02-19 00:34:00,
2013-02-18 18:39:00,61.7,30.8,29.23,WNW,290,7.6,7.6,31,0.00,,---,0.00,VWS V13.01,2013-02-19 00:39:00,
2013-02-18 18:44:00,61.7,30.8,29.23,West,279,8.1,8.1,31,0.00,,---,0.00,VWS V13.01,2013-02-19 00:44:00,
2013-02-18 18:49:00,61.7,30.8,29.23,West,279,8.1,8.1,31,0.00,,---,0.00,VWS V13.01,2013-02-19 00:49:00,
2013-02-18 18:54:00,61.7,30.8,29.23,West,279,8.1,8.1,31,0.00,,---,0.00,VWS V13.01,2013-02-19 00:54:00,
2013-02-18 18:59:00,61.7,30.8,29.23,West,279,8.1,8.1,31,0.00,,---,0.00,VWS V13.01,2013-02-19 00:59:00,
2013-02-18 19:04:00,61.7,30.8,29.23,NW,309,4.0,4.0,31,0.00,,---,0.00,VWS V13.01,2013-02-19 01:04:00,
2013-02-18 19:09:00,61.7,30.8,29.23,West,279,8.3,8.3,31,0.00,,---,0.00,VWS V13.01,2013-02-19 01:09:00,
2013-02-18 19:14:00,61.7,30.8,29.23,NNW,331,12.8,12.8,31,0.00,,---,0.00,VWS V13.01,2013-02-19 01:14:00,
2013-02-18 19:19:00,61.7,30.8,29.23,WNW,295,10.1,10.1,31,0.00,,---,0.00,VWS V13.01,2013-02-19 01:19:00,
2013-02-18 19:24:00,61.7,30.8,29.23,WNW,295,10.1,10.1,31,0.00,,---,0.00,VWS V13.01,2013-02-19 01:24:00,
2013-02-18 19:29:00,61.7,30.8,29.23,WNW,295,10.1,10.1,31,0.00,,---,0.00,VWS V13.01,2013-02-19 01:29:00,
2013-02-18 19:34:00,61.7,30.8,29.23,WNW,290,8.3,8.3,31,0.00,,---,0.00,VWS V13.01,2013-02-19 01:34:00,
2013-02-18 19:39:00,61.7,30.8,29.23,WNW,290,8.3,8.3,31,0.00,,---,0.00,VWS V13.01,2013-02-19 01:39:00,
2013-02-18 19:44:00,59.4,31.0,29.23,West,275,8.1,8.1,34,0.00,,---,0.00,VWS V13.01,2013-02-19 01:44:00,
2013-02-18 19:49:00,59.4,31.0,29.23,West,275,8.1,8.1,34,0.00,,---,0.00,VWS V13.01,2013-02-19 01:49:00,
2013-02-18 19:54:00,59.4,31.0,29.23,West,275,8.1,8.1,34,0.00,,---,0.00,VWS V13.01,2013-02-19 01:54:00,
2013-02-18 19:59:00,59.4,31.0,29.23,West,275,8.1,8.1,34,0.00,,---,0.00,VWS V13.01,2013-02-19 01:59:00,
2013-02-18 20:04:00,58.5,30.2,29.23,West,275,8.1,8.1,34,0.00,,---,0.00,VWS V13.01,2013-02-19 02:04:00,
2013-02-18 20:09:00,58.5,30.2,29.23,West,275,8.1,8.1,34,0.00,,---,0.00,VWS V13.01,2013-02-19 02:09:00,
2013-02-18 20:14:00,58.5,30.2,29.23,West,275,8.1,8.1,34,0.00,,---,0.00,VWS V13.01,2013-02-19 02:14:00,
2013-02-18 20:19:00,58.5,30.2,29.23,West,275,8.1,8.1,34,0.00,,---,0.00,VWS V13.01,2013-02-19 02:19:00,
2013-02-18 20:24:00,57.9,30.5,29.23,WNW,300,4.0,8.1,35,0.00,,---,0.00,VWS V13.01,2013-02-19 02:24:00,
2013-02-18 20:29:00,57.7,30.3,29.23,WNW,300,4.0,4.0,35,0.00,,---,0.00,VWS V13.01,2013-02-19 02:29:00,
2013-02-18 20:34:00,57.7,30.3,29.23,WNW,295,2.7,2.7,35,0.00,,---,0.00,VWS V13.01,2013-02-19 02:34:00,
2013-02-18 20:39:00,57.4,30.0,29.23,WNW,295,2.7,2.7,35,0.00,,---,0.00,VWS V13.01,2013-02-19 02:39:00,
2013-02-18 20:44:00,57.4,30.0,29.23,WNW,295,2.7,2.7,35,0.00,,---,0.00,VWS V13.01,2013-02-19 02:44:00,
2013-02-18 20:49:00,57.4,30.0,29.44,WNW,295,2.7,2.7,35,0.00,,---,0.00,VWS V13.01,2013-02-19 02:49:00,
2013-02-18 20:54:00,57.0,30.4,29.44,WNW,295,2.7,2.7,36,0.00,,---,0.00,VWS V13.01,2013-02-19 02:54:00,
2013-02-18 20:59:00,57.0,30.4,29.44,WNW,295,2.7,2.7,36,0.00,,---,0.00,VWS V13.01,2013-02-19 02:59:00,
2013-02-18 21:04:00,57.0,30.4,29.44,WNW,295,2.7,2.7,36,0.00,,---,0.00,VWS V13.01,2013-02-19 03:04:00,
2013-02-18 21:09:00,56.5,29.9,29.44,WNW,290,6.3,6.3,36,0.00,,---,0.00,VWS V13.01,2013-02-19 03:09:00,
2013-02-18 21:14:00,56.5,29.9,29.44,WNW,290,6.3,6.3,36,0.00,,---,0.00,VWS V13.01,2013-02-19 03:14:00,